contact:dominique.lefevre@mio.osupytheas.fr, maurice.libes@osupytheas.fr, didier.mallarino@osupytheas.fr
Project:EMSO http://www.emso-fr.org/EMSO-France
Depth: 2436.0 m
Title:EMSO Ligure Ouest : Data MII capteur MICROCAT
DateTime_Computer,Latitude,Longitude,Temperature,Conductivity,Pressure,DateTime_Instrument
DateTime_Computer,Latitude,Longitude,degC,S m-1,dbar,DateTime_Instrument
2022-05-19T00:00:30Z,42.805,6.029,13.3024,4.60079,2470.661,2022-5-19T02:02:11Z
2022-05-19T00:03:33Z,42.805,6.029,13.3022,4.60077,2470.646,2022-5-19T02:05:14Z
2022-05-19T00:06:36Z,42.805,6.029,13.3013,4.60051,2470.684,2022-5-19T02:08:17Z
2022-05-19T00:09:39Z,42.805,6.029,13.3014,4.60053,2470.684,2022-5-19T02:11:20Z
2022-05-19T00:12:42Z,42.805,6.029,13.3013,4.60047,2470.624,2022-5-19T02:14:23Z
2022-05-19T00:15:45Z,42.805,6.029,13.3014,4.60050,2470.646,2022-5-19T02:17:26Z
2022-05-19T00:18:48Z,42.805,6.029,13.3006,4.60054,2470.661,2022-5-19T02:20:29Z
2022-05-19T00:21:51Z,42.805,6.029,13.3012,4.60062,2470.646,2022-5-19T02:23:33Z
2022-05-19T00:24:55Z,42.805,6.029,13.3019,4.60069,2470.693,2022-5-19T02:26:36Z
2022-05-19T00:27:58Z,42.805,6.029,13.3008,4.60052,2470.624,2022-5-19T02:29:39Z
2022-05-19T00:31:01Z,42.805,6.029,13.3011,4.60049,2470.661,2022-5-19T02:32:42Z
2022-05-19T00:34:04Z,42.805,6.029,13.3013,4.60064,2470.637,2022-5-19T02:35:45Z
2022-05-19T00:37:07Z,42.805,6.029,13.3005,4.60049,2470.6,2022-5-19T02:38:48Z
2022-05-19T00:40:10Z,42.805,6.029,13.3006,4.60075,2470.661,2022-5-19T02:41:51Z
2022-05-19T00:43:13Z,42.805,6.029,13.3006,4.60047,2470.624,2022-5-19T02:44:54Z
2022-05-19T00:46:16Z,42.805,6.029,13.3011,4.60050,2470.707,2022-5-19T02:47:58Z
2022-05-19T00:49:19Z,42.805,6.029,13.3015,4.60067,2470.637,2022-5-19T02:51:01Z
2022-05-19T00:52:23Z,42.805,6.029,13.3005,4.60046,2470.646,2022-5-19T02:54:04Z
2022-05-19T00:55:26Z,42.805,6.029,13.3005,4.60052,2470.624,2022-5-19T02:57:07Z
2022-05-19T00:58:29Z,42.805,6.029,13.3008,4.60062,2470.6,2022-5-19T03:00:10Z
2022-05-19T01:01:32Z,42.805,6.029,13.3014,4.60053,2470.6,2022-5-19T03:03:13Z
2022-05-19T01:04:35Z,42.805,6.029,13.3010,4.60048,2470.6,2022-5-19T03:06:16Z
2022-05-19T01:07:38Z,42.805,6.029,13.3009,4.60065,2470.624,2022-5-19T03:09:19Z
2022-05-19T01:10:41Z,42.805,6.029,13.3016,4.60060,2470.624,2022-5-19T03:12:22Z
2022-05-19T01:13:44Z,42.805,6.029,13.3021,4.60077,2470.577,2022-5-19T03:15:26Z
2022-05-19T01:16:48Z,42.805,6.029,13.3017,4.60074,2470.624,2022-5-19T03:18:29Z
2022-05-19T01:19:51Z,42.805,6.029,13.3008,4.60052,2470.6,2022-5-19T03:21:32Z
2022-05-19T01:22:54Z,42.805,6.029,13.3004,4.60047,2470.614,2022-5-19T03:24:35Z
2022-05-19T01:25:57Z,42.805,6.029,13.3010,4.60067,2470.637,2022-5-19T03:27:38Z
2022-05-19T01:29:00Z,42.805,6.029,13.3015,4.60062,2470.577,2022-5-19T03:30:41Z
2022-05-19T01:32:03Z,42.805,6.029,13.3013,4.60070,2470.553,2022-5-19T03:33:44Z
2022-05-19T01:35:06Z,42.805,6.029,13.3013,4.60058,2470.614,2022-5-19T03:36:48Z
2022-05-19T01:38:09Z,42.805,6.029,13.3021,4.60081,2470.591,2022-5-19T03:39:51Z
2022-05-19T01:41:13Z,42.805,6.029,13.3021,4.60073,2470.6,2022-5-19T03:42:54Z
2022-05-19T01:44:16Z,42.805,6.029,13.3010,4.60067,2470.614,2022-5-19T03:45:57Z
2022-05-19T01:47:19Z,42.805,6.029,13.3012,4.60054,2470.577,2022-5-19T03:49:00Z
2022-05-19T01:50:22Z,42.805,6.029,13.3009,4.60052,2470.577,2022-5-19T03:52:03Z
2022-05-19T01:53:25Z,42.805,6.029,13.3014,4.60077,2470.6,2022-5-19T03:55:06Z
2022-05-19T01:56:28Z,42.805,6.029,13.3015,4.60080,2470.6,2022-5-19T03:58:09Z
2022-05-19T01:59:31Z,42.805,6.029,13.3009,4.60054,2470.577,2022-5-19T04:01:12Z
2022-05-19T02:02:34Z,42.805,6.029,13.3011,4.60055,2470.553,2022-5-19T04:04:16Z
2022-05-19T02:05:38Z,42.805,6.029,13.3014,4.60072,2470.614,2022-5-19T04:07:19Z
2022-05-19T02:08:41Z,42.805,6.029,13.3018,4.60069,2470.577,2022-5-19T04:10:22Z
2022-05-19T02:11:44Z,42.805,6.029,13.3014,4.60072,2470.577,2022-5-19T04:13:25Z
2022-05-19T02:14:47Z,42.805,6.029,13.3019,4.60060,2470.553,2022-5-19T04:16:28Z
2022-05-19T02:17:50Z,42.805,6.029,13.3011,4.60060,2470.6,2022-5-19T04:19:31Z
2022-05-19T02:20:53Z,42.805,6.029,13.3005,4.60049,2470.577,2022-5-19T04:22:34Z
2022-05-19T02:23:56Z,42.805,6.029,13.3006,4.60075,2470.567,2022-5-19T04:25:37Z
2022-05-19T02:26:59Z,42.805,6.029,13.3006,4.60045,2470.591,2022-5-19T04:28:41Z
2022-05-19T02:30:03Z,42.805,6.029,13.3012,4.60064,2470.567,2022-5-19T04:31:44Z
2022-05-19T02:33:06Z,42.805,6.029,13.3014,4.60077,2470.553,2022-5-19T04:34:47Z
2022-05-19T02:36:09Z,42.805,6.029,13.3006,4.60055,2470.591,2022-5-19T04:37:50Z
2022-05-19T02:39:12Z,42.805,6.029,13.3014,4.60052,2470.567,2022-5-19T04:40:53Z
2022-05-19T02:42:15Z,42.805,6.029,13.3018,4.60072,2470.577,2022-5-19T04:43:56Z
2022-05-19T02:45:18Z,42.805,6.029,13.3012,4.60067,2470.53,2022-5-19T04:46:59Z
2022-05-19T02:48:21Z,42.805,6.029,13.3023,4.60074,2470.553,2022-5-19T04:50:02Z
2022-05-19T02:51:24Z,42.805,6.029,13.3008,4.60069,2470.53,2022-5-19T04:53:06Z
2022-05-19T02:54:27Z,42.805,6.029,13.3014,4.60060,2470.544,2022-5-19T04:56:09Z
2022-05-19T02:57:31Z,42.805,6.029,13.3010,4.60064,2470.567,2022-5-19T04:59:12Z
2022-05-19T03:00:34Z,42.805,6.029,13.3003,4.60049,2470.553,2022-5-19T05:02:15Z
2022-05-19T03:03:37Z,42.805,6.029,13.3017,4.60062,2470.553,2022-5-19T05:05:18Z
2022-05-19T03:06:40Z,42.805,6.029,13.3007,4.60062,2470.53,2022-5-19T05:08:21Z
2022-05-19T03:09:43Z,42.805,6.029,13.3009,4.60063,2470.567,2022-5-19T05:11:24Z
2022-05-19T03:12:46Z,42.805,6.029,13.3012,4.60062,2470.577,2022-5-19T05:14:27Z
2022-05-19T03:15:49Z,42.805,6.029,13.3014,4.60056,2470.567,2022-5-19T05:17:31Z
2022-05-19T03:18:52Z,42.805,6.029,13.3010,4.60047,2470.577,2022-5-19T05:20:34Z
2022-05-19T03:21:56Z,42.805,6.029,13.3007,4.60057,2470.53,2022-5-19T05:23:37Z
2022-05-19T03:24:59Z,42.805,6.029,13.3005,4.60055,2470.507,2022-5-19T05:26:40Z
2022-05-19T03:28:02Z,42.805,6.029,13.3015,4.60046,2470.553,2022-5-19T05:29:43Z
2022-05-19T03:31:05Z,42.805,6.029,13.3009,4.60049,2470.567,2022-5-19T05:32:46Z
2022-05-19T03:34:08Z,42.805,6.029,13.3009,4.60045,2470.53,2022-5-19T05:35:49Z
2022-05-19T03:37:11Z,42.805,6.029,13.3007,4.60044,2470.553,2022-5-19T05:38:52Z
2022-05-19T03:40:14Z,42.805,6.029,13.3012,4.60061,2470.507,2022-5-19T05:41:56Z
2022-05-19T03:43:17Z,42.805,6.029,13.3004,4.60051,2470.544,2022-5-19T05:44:59Z
2022-05-19T03:46:21Z,42.805,6.029,13.3007,4.60050,2470.53,2022-5-19T05:48:02Z
2022-05-19T03:49:24Z,42.805,6.029,13.3006,4.60051,2470.544,2022-5-19T05:51:05Z
2022-05-19T03:52:27Z,42.805,6.029,13.3004,4.60046,2470.53,2022-5-19T05:54:08Z
2022-05-19T03:55:30Z,42.805,6.029,13.3010,4.60052,2470.553,2022-5-19T05:57:11Z
2022-05-19T03:58:33Z,42.805,6.029,13.3021,4.60056,2470.544,2022-5-19T06:00:14Z
2022-05-19T04:01:36Z,42.805,6.029,13.3007,4.60062,2470.53,2022-5-19T06:03:17Z
2022-05-19T04:04:39Z,42.805,6.029,13.3012,4.60049,2470.53,2022-5-19T06:06:21Z
2022-05-19T04:07:42Z,42.805,6.029,13.3009,4.60041,2470.553,2022-5-19T06:09:24Z
2022-05-19T04:10:46Z,42.805,6.029,13.3018,4.60057,2470.53,2022-5-19T06:12:27Z
2022-05-19T04:13:49Z,42.805,6.029,13.3016,4.60053,2470.53,2022-5-19T06:15:30Z
2022-05-19T04:16:52Z,42.805,6.029,13.3009,4.60049,2470.53,2022-5-19T06:18:33Z
2022-05-19T04:19:55Z,42.805,6.029,13.3009,4.60046,2470.52,2022-5-19T06:21:36Z
2022-05-19T04:22:58Z,42.805,6.029,13.3009,4.60046,2470.53,2022-5-19T06:24:39Z
2022-05-19T04:26:01Z,42.805,6.029,13.3007,4.60051,2470.553,2022-5-19T06:27:42Z
2022-05-19T04:29:04Z,42.805,6.029,13.3006,4.60075,2470.507,2022-5-19T06:30:45Z
2022-05-19T04:32:07Z,42.805,6.029,13.3011,4.60092,2470.553,2022-5-19T06:33:49Z
2022-05-19T04:35:10Z,42.805,6.029,13.3010,4.60072,2470.52,2022-5-19T06:36:52Z
2022-05-19T04:38:14Z,42.805,6.029,13.3006,4.60058,2470.53,2022-5-19T06:39:55Z
2022-05-19T04:41:17Z,42.805,6.029,13.3004,4.60062,2470.53,2022-5-19T06:42:58Z
2022-05-19T04:44:20Z,42.805,6.029,13.3012,4.60046,2470.544,2022-5-19T06:46:01Z
2022-05-19T04:47:23Z,42.805,6.029,13.3013,4.60046,2470.53,2022-5-19T06:49:04Z
2022-05-19T04:50:26Z,42.805,6.029,13.3009,4.60047,2470.53,2022-5-19T06:52:07Z
2022-05-19T04:53:29Z,42.805,6.029,13.3011,4.60055,2470.544,2022-5-19T06:55:10Z
2022-05-19T04:56:32Z,42.805,6.029,13.3015,4.60055,2470.544,2022-5-19T06:58:14Z
2022-05-19T04:59:35Z,42.805,6.029,13.3009,4.60052,2470.53,2022-5-19T07:01:17Z
2022-05-19T05:02:39Z,42.805,6.029,13.3011,4.60084,2470.544,2022-5-19T07:04:20Z
2022-05-19T05:05:42Z,42.805,6.029,13.3005,4.60058,2470.53,2022-5-19T07:07:23Z
2022-05-19T05:08:45Z,42.805,6.029,13.3019,4.60057,2470.507,2022-5-19T07:10:26Z
2022-05-19T05:11:48Z,42.805,6.029,13.3014,4.60061,2470.544,2022-5-19T07:13:29Z
2022-05-19T05:14:51Z,42.805,6.029,13.3009,4.60049,2470.553,2022-5-19T07:16:32Z
2022-05-19T05:17:54Z,42.805,6.029,13.3012,4.60049,2470.544,2022-5-19T07:19:35Z
2022-05-19T05:20:57Z,42.805,6.029,13.3010,4.60049,2470.553,2022-5-19T07:22:39Z
2022-05-19T05:24:00Z,42.805,6.029,13.3006,4.60045,2470.591,2022-5-19T07:25:42Z
2022-05-19T05:27:04Z,42.805,6.029,13.3006,4.60043,2470.553,2022-5-19T07:28:45Z
2022-05-19T05:30:07Z,42.805,6.029,13.3010,4.60044,2470.53,2022-5-19T07:31:48Z
2022-05-19T05:33:10Z,42.805,6.029,13.3008,4.60049,2470.577,2022-5-19T07:34:51Z
2022-05-19T05:36:13Z,42.805,6.029,13.3005,4.60042,2470.553,2022-5-19T07:37:54Z
2022-05-19T05:39:16Z,42.805,6.029,13.3019,4.60057,2470.553,2022-5-19T07:40:57Z
2022-05-19T05:42:19Z,42.805,6.029,13.3019,4.60061,2470.53,2022-5-19T07:44:00Z
2022-05-19T05:45:22Z,42.805,6.029,13.3005,4.60044,2470.553,2022-5-19T07:47:04Z
2022-05-19T05:48:25Z,42.805,6.029,13.3002,4.60061,2470.567,2022-5-19T07:50:07Z
2022-05-19T05:51:29Z,42.805,6.029,13.3014,4.60065,2470.567,2022-5-19T07:53:10Z
2022-05-19T05:54:32Z,42.805,6.029,13.3006,4.60052,2470.553,2022-5-19T07:56:13Z
2022-05-19T05:57:35Z,42.805,6.029,13.3006,4.60046,2470.591,2022-5-19T07:59:16Z
2022-05-19T06:00:38Z,42.805,6.029,13.3005,4.60066,2470.591,2022-5-19T08:02:19Z
2022-05-19T06:03:41Z,42.805,6.029,13.3006,4.60049,2470.591,2022-5-19T08:05:22Z
2022-05-19T06:06:44Z,42.805,6.029,13.3011,4.60046,2470.6,2022-5-19T08:08:25Z
2022-05-19T06:09:47Z,42.805,6.029,13.3007,4.60044,2470.6,2022-5-19T08:11:28Z
2022-05-19T06:12:50Z,42.805,6.029,13.3004,4.60048,2470.577,2022-5-19T08:14:32Z
2022-05-19T06:15:53Z,42.805,6.029,13.3013,4.60059,2470.614,2022-5-19T08:17:35Z
2022-05-19T06:18:57Z,42.805,6.029,13.3011,4.60046,2470.614,2022-5-19T08:20:38Z
2022-05-19T06:22:00Z,42.805,6.029,13.3010,4.60049,2470.6,2022-5-19T08:23:41Z
2022-05-19T06:25:03Z,42.805,6.029,13.3015,4.60054,2470.591,2022-5-19T08:26:44Z
2022-05-19T06:28:06Z,42.805,6.029,13.3008,4.60047,2470.567,2022-5-19T08:29:47Z
2022-05-19T06:31:09Z,42.805,6.029,13.3009,4.60040,2470.6,2022-5-19T08:32:50Z
2022-05-19T06:34:12Z,42.805,6.029,13.3005,4.60040,2470.637,2022-5-19T08:35:53Z
2022-05-19T06:37:15Z,42.805,6.029,13.3001,4.60040,2470.624,2022-5-19T08:38:57Z
2022-05-19T06:40:18Z,42.805,6.029,13.3004,4.60042,2470.637,2022-5-19T08:42:00Z
2022-05-19T06:43:22Z,42.805,6.029,13.3010,4.60042,2470.624,2022-5-19T08:45:03Z
2022-05-19T06:46:25Z,42.805,6.029,13.3004,4.60040,2470.637,2022-5-19T08:48:06Z
2022-05-19T06:49:28Z,42.805,6.029,13.3008,4.60049,2470.614,2022-5-19T08:51:09Z
2022-05-19T06:52:31Z,42.805,6.029,13.3009,4.60042,2470.614,2022-5-19T08:54:12Z
2022-05-19T06:55:34Z,42.805,6.029,13.3005,4.60041,2470.624,2022-5-19T08:57:15Z
2022-05-19T06:58:37Z,42.805,6.029,13.3011,4.60044,2470.637,2022-5-19T09:00:18Z
2022-05-19T07:01:40Z,42.805,6.029,13.3010,4.60045,2470.646,2022-5-19T09:03:22Z
2022-05-19T07:04:43Z,42.805,6.029,13.3013,4.60052,2470.6,2022-5-19T09:06:25Z
2022-05-19T07:07:47Z,42.805,6.029,13.3004,4.60042,2470.646,2022-5-19T09:09:28Z
2022-05-19T07:10:50Z,42.805,6.029,13.3006,4.60046,2470.614,2022-5-19T09:12:31Z
2022-05-19T07:13:53Z,42.805,6.029,13.3014,4.60049,2470.624,2022-5-19T09:15:34Z
2022-05-19T07:16:56Z,42.805,6.029,13.3010,4.60046,2470.646,2022-5-19T09:18:37Z
2022-05-19T07:19:59Z,42.805,6.029,13.3014,4.60043,2470.646,2022-5-19T09:21:40Z
2022-05-19T07:23:02Z,42.805,6.029,13.3006,4.60046,2470.646,2022-5-19T09:24:43Z
2022-05-19T07:26:05Z,42.805,6.029,13.3014,4.60059,2470.661,2022-5-19T09:27:46Z
2022-05-19T07:29:08Z,42.805,6.029,13.3006,4.60045,2470.646,2022-5-19T09:30:50Z
2022-05-19T07:32:11Z,42.805,6.029,13.3007,4.60045,2470.684,2022-5-19T09:33:53Z
2022-05-19T07:35:15Z,42.805,6.029,13.3006,4.60049,2470.67,2022-5-19T09:36:56Z
2022-05-19T07:38:18Z,42.805,6.029,13.3012,4.60060,2470.661,2022-5-19T09:39:59Z
2022-05-19T07:41:21Z,42.805,6.029,13.3011,4.60051,2470.646,2022-5-19T09:43:02Z
2022-05-19T07:44:24Z,42.805,6.029,13.3009,4.60046,2470.646,2022-5-19T09:46:05Z
2022-05-19T07:47:27Z,42.805,6.029,13.3010,4.60044,2470.707,2022-5-19T09:49:08Z
2022-05-19T07:50:30Z,42.805,6.029,13.3006,4.60057,2470.646,2022-5-19T09:52:11Z
2022-05-19T07:53:33Z,42.805,6.029,13.3007,4.60044,2470.646,2022-5-19T09:55:15Z
2022-05-19T07:56:36Z,42.805,6.029,13.3011,4.60066,2470.67,2022-5-19T09:58:18Z
2022-05-19T07:59:40Z,42.805,6.029,13.3011,4.60047,2470.67,2022-5-19T10:01:21Z
2022-05-19T08:02:43Z,42.805,6.029,13.3018,4.60061,2470.646,2022-5-19T10:04:24Z
2022-05-19T08:05:46Z,42.805,6.029,13.3007,4.60046,2470.684,2022-5-19T10:07:27Z
2022-05-19T08:08:49Z,42.805,6.029,13.3009,4.60057,2470.646,2022-5-19T10:10:30Z
2022-05-19T08:11:52Z,42.805,6.029,13.3010,4.60049,2470.646,2022-5-19T10:13:33Z
2022-05-19T08:14:55Z,42.805,6.029,13.3006,4.60048,2470.67,2022-5-19T10:16:36Z
2022-05-19T08:17:58Z,42.805,6.029,13.3006,4.60042,2470.693,2022-5-19T10:19:40Z
2022-05-19T08:21:01Z,42.805,6.029,13.3004,4.60045,2470.684,2022-5-19T10:22:43Z
2022-05-19T08:24:05Z,42.805,6.029,13.3013,4.60058,2470.684,2022-5-19T10:25:46Z
2022-05-19T08:27:08Z,42.805,6.029,13.3009,4.60053,2470.67,2022-5-19T10:28:49Z
2022-05-19T08:30:11Z,42.805,6.029,13.3009,4.60054,2470.646,2022-5-19T10:31:52Z
2022-05-19T08:33:14Z,42.805,6.029,13.3011,4.60060,2470.67,2022-5-19T10:34:55Z
2022-05-19T08:36:17Z,42.805,6.029,13.3003,4.60046,2470.67,2022-5-19T10:37:58Z
2022-05-19T08:39:20Z,42.805,6.029,13.3012,4.60050,2470.707,2022-5-19T10:41:01Z
2022-05-19T08:42:23Z,42.805,6.029,13.3004,4.60053,2470.67,2022-5-19T10:44:05Z
2022-05-19T08:45:26Z,42.805,6.029,13.3017,4.60050,2470.684,2022-5-19T10:47:08Z
2022-05-19T08:48:30Z,42.805,6.029,13.3009,4.60056,2470.693,2022-5-19T10:50:11Z
2022-05-19T08:51:33Z,42.805,6.029,13.3009,4.60044,2470.73,2022-5-19T10:53:14Z
2022-05-19T08:54:36Z,42.805,6.029,13.3012,4.60062,2470.67,2022-5-19T10:56:17Z
2022-05-19T08:57:39Z,42.805,6.029,13.3014,4.60067,2470.646,2022-5-19T10:59:20Z
2022-05-19T09:00:42Z,42.805,6.029,13.3006,4.60046,2470.646,2022-5-19T11:02:23Z
2022-05-19T09:03:45Z,42.805,6.029,13.3006,4.60064,2470.707,2022-5-19T11:05:26Z
2022-05-19T09:06:48Z,42.805,6.029,13.3004,4.60042,2470.67,2022-5-19T11:08:30Z
2022-05-19T09:09:51Z,42.805,6.029,13.3002,4.60062,2470.67,2022-5-19T11:11:33Z
2022-05-19T09:12:55Z,42.805,6.029,13.3009,4.60046,2470.661,2022-5-19T11:14:36Z
2022-05-19T09:15:58Z,42.805,6.029,13.3006,4.60046,2470.693,2022-5-19T11:17:39Z
2022-05-19T09:19:01Z,42.805,6.029,13.3011,4.60054,2470.646,2022-5-19T11:20:42Z
2022-05-19T09:22:04Z,42.805,6.029,13.3014,4.60051,2470.67,2022-5-19T11:23:45Z
2022-05-19T09:25:07Z,42.805,6.029,13.3006,4.60050,2470.684,2022-5-19T11:26:48Z
2022-05-19T09:28:10Z,42.805,6.029,13.3006,4.60048,2470.693,2022-5-19T11:29:51Z
2022-05-19T09:31:13Z,42.805,6.029,13.3014,4.60064,2470.67,2022-5-19T11:32:55Z
2022-05-19T09:34:16Z,42.805,6.029,13.3013,4.60055,2470.684,2022-5-19T11:35:58Z
2022-05-19T09:37:20Z,42.805,6.029,13.3008,4.60049,2470.684,2022-5-19T11:39:01Z
2022-05-19T09:40:23Z,42.805,6.029,13.3006,4.60048,2470.67,2022-5-19T11:42:04Z
2022-05-19T09:43:26Z,42.805,6.029,13.3011,4.60059,2470.67,2022-5-19T11:45:07Z
2022-05-19T09:46:29Z,42.805,6.029,13.3012,4.60054,2470.67,2022-5-19T11:48:10Z
2022-05-19T09:49:32Z,42.805,6.029,13.3011,4.60047,2470.67,2022-5-19T11:51:13Z
2022-05-19T09:52:35Z,42.805,6.029,13.3011,4.60052,2470.646,2022-5-19T11:54:16Z
2022-05-19T09:55:38Z,42.805,6.029,13.3007,4.60054,2470.661,2022-5-19T11:57:20Z
2022-05-19T09:58:41Z,42.805,6.029,13.3011,4.60048,2470.646,2022-5-19T12:00:23Z
2022-05-19T10:01:45Z,42.805,6.029,13.3005,4.60049,2470.684,2022-5-19T12:03:26Z
2022-05-19T10:04:48Z,42.805,6.029,13.3013,4.60069,2470.646,2022-5-19T12:06:29Z
2022-05-19T10:07:51Z,42.805,6.029,13.3009,4.60049,2470.67,2022-5-19T12:09:32Z
2022-05-19T10:10:54Z,42.805,6.029,13.3010,4.60056,2470.693,2022-5-19T12:12:35Z
2022-05-19T10:13:57Z,42.805,6.029,13.3016,4.60047,2470.661,2022-5-19T12:15:38Z
2022-05-19T10:17:00Z,42.805,6.029,13.3012,4.60048,2470.67,2022-5-19T12:18:41Z
2022-05-19T10:20:03Z,42.805,6.029,13.3010,4.60049,2470.646,2022-5-19T12:21:45Z
2022-05-19T10:23:06Z,42.805,6.029,13.3006,4.60064,2470.646,2022-5-19T12:24:48Z
2022-05-19T10:26:10Z,42.805,6.029,13.3008,4.60048,2470.646,2022-5-19T12:27:51Z
2022-05-19T10:29:13Z,42.805,6.029,13.3004,4.60051,2470.646,2022-5-19T12:30:54Z
2022-05-19T10:32:16Z,42.805,6.029,13.3017,4.60072,2470.67,2022-5-19T12:33:57Z
2022-05-19T10:35:19Z,42.805,6.029,13.3013,4.60069,2470.646,2022-5-19T12:37:00Z
2022-05-19T10:38:22Z,42.805,6.029,13.3006,4.60058,2470.67,2022-5-19T12:40:03Z
2022-05-19T10:41:25Z,42.805,6.029,13.3009,4.60047,2470.637,2022-5-19T12:43:06Z
2022-05-19T10:44:28Z,42.805,6.029,13.3006,4.60042,2470.661,2022-5-19T12:46:10Z
2022-05-19T10:47:32Z,42.805,6.029,13.3009,4.60049,2470.637,2022-5-19T12:49:13Z
2022-05-19T10:50:35Z,42.805,6.029,13.3010,4.60052,2470.646,2022-5-19T12:52:16Z
2022-05-19T10:53:38Z,42.805,6.029,13.3014,4.60061,2470.661,2022-5-19T12:55:19Z
2022-05-19T10:56:41Z,42.805,6.029,13.3013,4.60049,2470.646,2022-5-19T12:58:22Z
2022-05-19T10:59:44Z,42.805,6.029,13.3008,4.60053,2470.661,2022-5-19T13:01:25Z
2022-05-19T11:02:47Z,42.805,6.029,13.3004,4.60045,2470.637,2022-5-19T13:04:28Z
2022-05-19T11:05:50Z,42.805,6.029,13.3008,4.60056,2470.614,2022-5-19T13:07:31Z
2022-05-19T11:08:53Z,42.805,6.029,13.3009,4.60076,2470.614,2022-5-19T13:10:35Z
2022-05-19T11:11:57Z,42.805,6.029,13.3014,4.60067,2470.637,2022-5-19T13:13:38Z
2022-05-19T11:15:00Z,42.805,6.029,13.3007,4.60054,2470.624,2022-5-19T13:16:41Z
2022-05-19T11:18:03Z,42.805,6.029,13.3012,4.60051,2470.624,2022-5-19T13:19:44Z
2022-05-19T11:21:06Z,42.805,6.029,13.3018,4.60052,2470.646,2022-5-19T13:22:47Z
2022-05-19T11:24:09Z,42.805,6.029,13.3013,4.60051,2470.624,2022-5-19T13:25:50Z
2022-05-19T11:27:12Z,42.805,6.029,13.3008,4.60047,2470.624,2022-5-19T13:28:53Z
2022-05-19T11:30:15Z,42.805,6.029,13.3006,4.60049,2470.614,2022-5-19T13:31:56Z
2022-05-19T11:33:18Z,42.805,6.029,13.3009,4.60050,2470.6,2022-5-19T13:35:00Z
2022-05-19T11:36:22Z,42.805,6.029,13.3005,4.60049,2470.624,2022-5-19T13:38:03Z
2022-05-19T11:39:25Z,42.805,6.029,13.3015,4.60057,2470.614,2022-5-19T13:41:06Z
2022-05-19T11:42:28Z,42.805,6.029,13.3008,4.60046,2470.624,2022-5-19T13:44:09Z
2022-05-19T11:45:31Z,42.805,6.029,13.3004,4.60054,2470.591,2022-5-19T13:47:12Z
2022-05-19T11:48:34Z,42.805,6.029,13.3007,4.60047,2470.614,2022-5-19T13:50:15Z
2022-05-19T11:51:37Z,42.805,6.029,13.3006,4.60054,2470.577,2022-5-19T13:53:18Z
2022-05-19T11:54:40Z,42.805,6.029,13.3009,4.60046,2470.6,2022-5-19T13:56:22Z
2022-05-19T11:57:43Z,42.805,6.029,13.3006,4.60053,2470.6,2022-5-19T13:59:25Z
2022-05-19T12:00:47Z,42.805,6.029,13.3011,4.60054,2470.614,2022-5-19T14:02:28Z
2022-05-19T12:03:50Z,42.805,6.029,13.3009,4.60062,2470.6,2022-5-19T14:05:31Z
2022-05-19T12:06:53Z,42.805,6.029,13.3007,4.60047,2470.6,2022-5-19T14:08:34Z
2022-05-19T12:09:56Z,42.805,6.029,13.3009,4.60047,2470.614,2022-5-19T14:11:37Z
2022-05-19T12:12:59Z,42.805,6.029,13.3009,4.60059,2470.591,2022-5-19T14:14:40Z
2022-05-19T12:16:02Z,42.805,6.029,13.3012,4.60062,2470.577,2022-5-19T14:17:43Z
2022-05-19T12:19:05Z,42.805,6.029,13.3005,4.60042,2470.591,2022-5-19T14:20:47Z
2022-05-19T12:22:08Z,42.805,6.029,13.3010,4.60054,2470.6,2022-5-19T14:23:50Z
2022-05-19T12:25:12Z,42.805,6.029,13.3010,4.60049,2470.637,2022-5-19T14:26:53Z
2022-05-19T12:28:15Z,42.805,6.029,13.3005,4.60045,2470.553,2022-5-19T14:29:56Z
2022-05-19T12:31:18Z,42.805,6.029,13.3007,4.60047,2470.577,2022-5-19T14:32:59Z
2022-05-19T12:34:21Z,42.805,6.029,13.3011,4.60069,2470.577,2022-5-19T14:36:02Z
2022-05-19T12:37:24Z,42.805,6.029,13.3010,4.60046,2470.614,2022-5-19T14:39:05Z
2022-05-19T12:40:27Z,42.805,6.029,13.3005,4.60045,2470.553,2022-5-19T14:42:08Z
2022-05-19T12:43:30Z,42.805,6.029,13.3011,4.60053,2470.614,2022-5-19T14:45:12Z
2022-05-19T12:46:33Z,42.805,6.029,13.3009,4.60058,2470.614,2022-5-19T14:48:15Z
2022-05-19T12:49:37Z,42.805,6.029,13.3009,4.60046,2470.591,2022-5-19T14:51:18Z
2022-05-19T12:52:40Z,42.805,6.029,13.3006,4.60046,2470.577,2022-5-19T14:54:21Z
2022-05-19T12:55:43Z,42.805,6.029,13.3009,4.60049,2470.614,2022-5-19T14:57:24Z
2022-05-19T12:58:46Z,42.805,6.029,13.3012,4.60063,2470.577,2022-5-19T15:00:27Z
2022-05-19T13:01:49Z,42.805,6.029,13.3009,4.60052,2470.591,2022-5-19T15:03:30Z
2022-05-19T13:04:52Z,42.805,6.029,13.3013,4.60051,2470.577,2022-5-19T15:06:33Z
2022-05-19T13:07:55Z,42.805,6.029,13.3015,4.60073,2470.591,2022-5-19T15:09:37Z
2022-05-19T13:10:58Z,42.805,6.029,13.3007,4.60053,2470.591,2022-5-19T15:12:40Z
2022-05-19T13:14:02Z,42.805,6.029,13.3014,4.60076,2470.553,2022-5-19T15:15:43Z
2022-05-19T13:17:05Z,42.805,6.029,13.3015,4.60062,2470.577,2022-5-19T15:18:46Z
2022-05-19T13:20:08Z,42.805,6.029,13.3006,4.60059,2470.553,2022-5-19T15:21:49Z
2022-05-19T13:23:11Z,42.805,6.029,13.3015,4.60051,2470.553,2022-5-19T15:24:52Z
2022-05-19T13:26:14Z,42.805,6.029,13.3011,4.60051,2470.577,2022-5-19T15:27:55Z
2022-05-19T13:29:17Z,42.805,6.029,13.3007,4.60046,2470.567,2022-5-19T15:30:58Z
2022-05-19T13:32:20Z,42.805,6.029,13.3009,4.60049,2470.591,2022-5-19T15:34:02Z
2022-05-19T13:35:23Z,42.805,6.029,13.3011,4.60047,2470.553,2022-5-19T15:37:05Z
2022-05-19T13:38:27Z,42.805,6.029,13.3004,4.60043,2470.577,2022-5-19T15:40:08Z
2022-05-19T13:41:30Z,42.805,6.029,13.3014,4.60052,2470.544,2022-5-19T15:43:11Z
2022-05-19T13:44:33Z,42.805,6.029,13.3004,4.60047,2470.567,2022-5-19T15:46:14Z
2022-05-19T13:47:36Z,42.805,6.029,13.3009,4.60047,2470.553,2022-5-19T15:49:17Z
2022-05-19T13:50:39Z,42.805,6.029,13.3019,4.60052,2470.53,2022-5-19T15:52:20Z
2022-05-19T13:53:42Z,42.805,6.029,13.3010,4.60057,2470.539,2022-5-19T15:55:23Z
2022-05-19T13:56:45Z,42.805,6.029,13.3014,4.60059,2470.567,2022-5-19T15:58:27Z
2022-05-19T13:59:48Z,42.805,6.029,13.3009,4.60047,2470.567,2022-5-19T16:01:30Z
2022-05-19T14:02:52Z,42.805,6.029,13.3010,4.60046,2470.553,2022-5-19T16:04:33Z
2022-05-19T14:05:55Z,42.805,6.029,13.3006,4.60049,2470.53,2022-5-19T16:07:36Z
2022-05-19T14:08:58Z,42.805,6.029,13.3009,4.60050,2470.553,2022-5-19T16:10:39Z
2022-05-19T14:12:01Z,42.805,6.029,13.3012,4.60050,2470.544,2022-5-19T16:13:42Z
2022-05-19T14:15:04Z,42.805,6.029,13.3019,4.60052,2470.53,2022-5-19T16:16:45Z
2022-05-19T14:18:07Z,42.805,6.029,13.3007,4.60052,2470.507,2022-5-19T16:19:48Z
2022-05-19T14:21:10Z,42.805,6.029,13.3006,4.60050,2470.52,2022-5-19T16:22:52Z
2022-05-19T14:24:13Z,42.805,6.029,13.3009,4.60047,2470.53,2022-5-19T16:25:55Z
2022-05-19T14:27:17Z,42.805,6.029,13.3008,4.60069,2470.53,2022-5-19T16:28:58Z
2022-05-19T14:30:20Z,42.805,6.029,13.3011,4.60054,2470.483,2022-5-19T16:32:01Z
2022-05-19T14:33:23Z,42.805,6.029,13.3004,4.60044,2470.507,2022-5-19T16:35:04Z
2022-05-19T14:36:26Z,42.805,6.029,13.3006,4.60043,2470.567,2022-5-19T16:38:07Z
2022-05-19T14:39:29Z,42.805,6.029,13.3008,4.60053,2470.507,2022-5-19T16:41:10Z
2022-05-19T14:42:32Z,42.805,6.029,13.3009,4.60053,2470.53,2022-5-19T16:44:13Z
2022-05-19T14:45:35Z,42.805,6.029,13.3013,4.60066,2470.53,2022-5-19T16:47:17Z
2022-05-19T14:48:38Z,42.805,6.029,13.3011,4.60055,2470.544,2022-5-19T16:50:20Z
2022-05-19T14:51:42Z,42.805,6.029,13.3011,4.60046,2470.544,2022-5-19T16:53:23Z
2022-05-19T14:54:45Z,42.805,6.029,13.3011,4.60048,2470.507,2022-5-19T16:56:26Z
2022-05-19T14:57:48Z,42.805,6.029,13.3007,4.60050,2470.507,2022-5-19T16:59:29Z
2022-05-19T15:00:51Z,42.805,6.029,13.3004,4.60042,2470.507,2022-5-19T17:02:32Z
2022-05-19T15:03:54Z,42.805,6.029,13.3010,4.60041,2470.483,2022-5-19T17:05:35Z
2022-05-19T15:06:57Z,42.805,6.029,13.3006,4.60047,2470.507,2022-5-19T17:08:38Z
2022-05-19T15:10:00Z,42.805,6.029,13.3008,4.60039,2470.483,2022-5-19T17:11:42Z
2022-05-19T15:13:03Z,42.805,6.029,13.3011,4.60046,2470.483,2022-5-19T17:14:45Z